When you browse on this site, cookies collect data to enhance your experience and personalize the content and advertising you see.
Visit our Privacy Policy to learn more. By continuing to use the site, you agree to this use of cookies and data.
  • In Latvia
  • List of Countries
  • For 7 days
  • Water Temperature
  • Weather Map
  • Weather Widgets
  • user-avatar
    Login

    Hourly Weather Locarno

    Today, 14 October, Monday

    Time Temperature Precipitation Wind Pressure Humidity
    00:00 +12°C° 0 mm 1 mps 715 mmHg 88%
    01:00 +12°C° 0 mm 1 mps 715 mmHg 88%
    02:00 +12°C° 0 mm 1 mps 715 mmHg 88%
    03:00 +12°C° 0 mm 1 mps 715 mmHg 88%
    04:00 +12°C° 0 mm 1 mps 715 mmHg 88%
    05:00 +12°C° 0 mm 1 mps 715 mmHg 88%
    06:00 +12°C° 0 mm 1 mps 714 mmHg 87%
    07:00 +12°C° 0 mm 1 mps 714 mmHg 87%
    08:00 +14°C° 0 mm 1 mps 714 mmHg 82%
    09:00 +16°C° 0 mm 1 mps 714 mmHg 77%
    10:00 +19°C° 0 mm 1 mps 714 mmHg 72%
    11:00 +20°C° 0 mm 1 mps 714 mmHg 70%
    12:00 +20°C° 0 mm 1 mps 714 mmHg 69%
    13:00 +19°C° 0 mm 2 mps 714 mmHg 68%
    14:00 +20°C° 0 mm 1 mps 714 mmHg 71%
    15:00 +19°C° 0 mm 1 mps 713 mmHg 74%
    16:00 +19°C° 0 mm 1 mps 713 mmHg 77%
    17:00 +18°C° 0 mm 1 mps 713 mmHg 81%
    18:00 +16°C° 0 mm 1 mps 713 mmHg 85%
    19:00 +15°C° 0 mm 1 mps 713 mmHg 88%
    20:00 +15°C° 0 mm 1 mps 713 mmHg 88%
    21:00 +15°C° 0 mm 1 mps 713 mmHg 88%
    22:00 +15°C° 0 mm 1 mps 713 mmHg 88%
    23:00 +15°C° 0.3 mm 1 mps 713 mmHg 90%

    Tomorrow, 15 October, Tuesday

    Time Temperature Precipitation Wind Pressure Humidity
    00:00 +15°C° 0.3 mm 1 mps 713 mmHg 92%
    01:00 +14°C° 0.3 mm 1 mps 713 mmHg 94%
    02:00 +14°C° 0.6 mm 1 mps 712 mmHg 94%
    03:00 +14°C° 0.6 mm 1 mps 712 mmHg 95%
    04:00 +14°C° 0.6 mm 1 mps 711 mmHg 95%
    05:00 +14°C° 0.4 mm 1 mps 710 mmHg 95%
    06:00 +14°C° 0.4 mm 1 mps 710 mmHg 96%
    07:00 +14°C° 0.4 mm 1 mps 709 mmHg 96%
    08:00 +14°C° 1.4 mm 1 mps 709 mmHg 97%
    09:00 +15°C° 1.4 mm 2 mps 709 mmHg 97%
    10:00 +15°C° 1.4 mm 2 mps 708 mmHg 97%
    11:00 +15°C° 4.1 mm 2 mps 708 mmHg 97%
    12:00 +15°C° 4.1 mm 2 mps 708 mmHg 97%
    13:00 +15°C° 4.1 mm 2 mps 708 mmHg 97%
    14:00 +15°C° 5.1 mm 2 mps 708 mmHg 97%
    15:00 +15°C° 5.1 mm 2 mps 708 mmHg 97%
    16:00 +14°C° 5.1 mm 1 mps 708 mmHg 97%
    17:00 +14°C° 2.6 mm 1 mps 708 mmHg 97%
    18:00 +14°C° 2.6 mm 2 mps 709 mmHg 97%
    19:00 +14°C° 2.6 mm 2 mps 709 mmHg 97%
    20:00 +14°C° 1.9 mm 1 mps 710 mmHg 97%
    21:00 +13°C° 1.9 mm 1 mps 710 mmHg 96%
    22:00 +13°C° 1.9 mm 1 mps 711 mmHg 95%
    23:00 +12°C° 1.5 mm 1 mps 711 mmHg 95%

    Day after tomorrow, 16 October, Wednesday

    Time Temperature Precipitation Wind Pressure Humidity
    00:00 +10°C° 1.5 mm 2 mps 711 mmHg 94%
    01:00 +10°C° 1.5 mm 2 mps 711 mmHg 93%
    02:00 +9°C° 0.3 mm 2 mps 711 mmHg 91%
    03:00 +9°C° 0.3 mm 2 mps 711 mmHg 90%
    04:00 +9°C° 0.3 mm 2 mps 711 mmHg 89%
    05:00 +8°C° 0 mm 2 mps 711 mmHg 87%
    06:00 +8°C° 0 mm 2 mps 712 mmHg 86%
    07:00 +7°C° 0 mm 2 mps 712 mmHg 84%
    08:00 +10°C° 0 mm 2 mps 712 mmHg 80%
    09:00 +13°C° 0 mm 1 mps 712 mmHg 75%
    10:00 +14°C° 0 mm 0 mps 712 mmHg 70%
    11:00 +16°C° 0 mm 1 mps 712 mmHg 67%
    12:00 +18°C° 0 mm 1 mps 712 mmHg 63%
    13:00 +19°C° 0 mm 1 mps 712 mmHg 59%
    14:00 +18°C° 0 mm 1 mps 712 mmHg 63%
    15:00 +18°C° 0 mm 1 mps 712 mmHg 67%
    16:00 +16°C° 0 mm 1 mps 712 mmHg 71%
    17:00 +15°C° 0 mm 1 mps 712 mmHg 77%
    18:00 +13°C° 0 mm 1 mps 712 mmHg 83%
    19:00 +11°C° 0 mm 1 mps 712 mmHg 89%
    20:00 +11°C° 0 mm 1 mps 713 mmHg 89%
    21:00 +11°C° 0 mm 1 mps 713 mmHg 88%
    22:00 +11°C° 0 mm 1 mps 713 mmHg 88%
    23:00 +11°C° 0 mm 1 mps 713 mmHg 88%

    17 October, Thursday

    Time Temperature Precipitation Wind Pressure Humidity
    00:00 +11°C° 0 mm 1 mps 713 mmHg 88%
    01:00 +11°C° 0 mm 1 mps 713 mmHg 88%
    02:00 +11°C° 0 mm 1 mps 713 mmHg 88%
    03:00 +11°C° 0 mm 1 mps 713 mmHg 88%
    04:00 +11°C° 0 mm 1 mps 713 mmHg 88%
    05:00 +12°C° 0 mm 1 mps 713 mmHg 87%
    06:00 +12°C° 0 mm 1 mps 713 mmHg 87%
    07:00 +11°C° 0 mm 0 mps 713 mmHg 87%
    08:00 +12°C° 0 mm 0 mps 713 mmHg 84%
    09:00 +13°C° 0 mm 0 mps 713 mmHg 81%
    10:00 +14°C° 0 mm 0 mps 713 mmHg 79%
    11:00 +15°C° 0.1 mm 1 mps 713 mmHg 76%
    12:00 +16°C° 0.1 mm 1 mps 713 mmHg 74%
    13:00 +16°C° 0.1 mm 1 mps 713 mmHg 71%
    14:00 +16°C° 0 mm 1 mps 713 mmHg 72%
    15:00 +16°C° 0 mm 1 mps 713 mmHg 73%
    16:00 +15°C° 0 mm 0 mps 713 mmHg 74%
    17:00 +14°C° 0 mm 0 mps 713 mmHg 79%
    18:00 +13°C° 0 mm 0 mps 713 mmHg 83%
    19:00 +11°C° 0 mm 0 mps 713 mmHg 87%
    20:00 +12°C° 0 mm 1 mps 713 mmHg 87%
    21:00 +12°C° 0 mm 1 mps 713 mmHg 87%
    22:00 +11°C° 0 mm 1 mps 714 mmHg 86%
    23:00 +11°C° 0 mm 1 mps 714 mmHg 86%

    18 October, Friday

    Time Temperature Precipitation Wind Pressure Humidity
    00:00 +11°C° 0 mm 1 mps 714 mmHg 85%
    01:00 +11°C° 0 mm 1 mps 714 mmHg 85%
    02:00 +11°C° 0 mm 1 mps 713 mmHg 84%
    03:00 +11°C° 0 mm 1 mps 713 mmHg 83%
    04:00 +10°C° 0 mm 1 mps 713 mmHg 82%
    05:00 +10°C° 0 mm 1 mps 713 mmHg 82%
    06:00 +10°C° 0 mm 1 mps 713 mmHg 82%
    07:00 +10°C° 0 mm 1 mps 713 mmHg 82%
    08:00 +12°C° 0 mm 1 mps 714 mmHg 77%
    09:00 +14°C° 0 mm 1 mps 714 mmHg 73%
    10:00 +15°C° 0 mm 0 mps 714 mmHg 68%
    11:00 +16°C° 0 mm 1 mps 714 mmHg 68%
    12:00 +16°C° 0 mm 1 mps 714 mmHg 68%
    13:00 +17°C° 0 mm 2 mps 714 mmHg 68%
    14:00 +16°C° 0.1 mm 1 mps 714 mmHg 75%
    15:00 +15°C° 0.1 mm 1 mps 713 mmHg 82%
    16:00 +14°C° 0.1 mm 1 mps 713 mmHg 88%
    17:00 +14°C° 0.1 mm 1 mps 713 mmHg 91%
    18:00 +12°C° 0.1 mm 0 mps 713 mmHg 93%
    19:00 +12°C° 0.1 mm 0 mps 713 mmHg 95%
    20:00 +12°C° 0.1 mm 0 mps 713 mmHg 95%
    21:00 +12°C° 0.1 mm 0 mps 713 mmHg 95%
    22:00 +12°C° 0.1 mm 0 mps 713 mmHg 95%
    23:00 +11°C° 0.1 mm 0 mps 713 mmHg 95%

    19 October, Saturday

    Time Temperature Precipitation Wind Pressure Humidity
    00:00 +11°C° 0.1 mm 0 mps 713 mmHg 96%
    01:00 +11°C° 0.1 mm 0 mps 712 mmHg 96%
    02:00 +11°C° 0.1 mm 0 mps 712 mmHg 96%
    03:00 +11°C° 0.1 mm 0 mps 712 mmHg 96%
    04:00 +11°C° 0.1 mm 0 mps 712 mmHg 96%
    05:00 +11°C° 0.2 mm 0 mps 712 mmHg 96%
    06:00 +11°C° 0.2 mm 0 mps 712 mmHg 96%
    07:00 +11°C° 0.2 mm 0 mps 712 mmHg 96%
    08:00 +12°C° 0.5 mm 1 mps 711 mmHg 97%
    09:00 +12°C° 0.5 mm 1 mps 711 mmHg 97%
    10:00 +13°C° 0.5 mm 1 mps 711 mmHg 97%
    11:00 +13°C° 0.9 mm 1 mps 711 mmHg 97%
    12:00 +13°C° 0.9 mm 1 mps 710 mmHg 97%
    13:00 +13°C° 0.9 mm 2 mps 710 mmHg 97%
    14:00 +13°C° 0.4 mm 1 mps 710 mmHg 96%
    15:00 +13°C° 0.4 mm 1 mps 709 mmHg 96%
    16:00 +13°C° 0.4 mm 1 mps 709 mmHg 96%
    17:00 +12°C° 0.6 mm 1 mps 709 mmHg 96%
    18:00 +12°C° 0.6 mm 1 mps 709 mmHg 96%
    19:00 +12°C° 0.6 mm 1 mps 709 mmHg 97%
    20:00 +12°C° 1.6 mm 1 mps 709 mmHg 97%
    21:00 +12°C° 1.6 mm 1 mps 709 mmHg 97%
    22:00 +12°C° 1.6 mm 2 mps 710 mmHg 98%
    23:00 +12°C° 1.7 mm 2 mps 709 mmHg 98%
    Show more